Miscellaneous Local Product
Issued by NWS North Platte, NE

Home | Current Version | Previous Version | Text Only | Print | Product List | Glossary On
Versions: 1 2 3 4 5 6 7 8 9 10 11 12 13 14 15 16 17 18 19 20 21 22 23 24 25 26 27 28 29 30 31 32 33 34 35 36 37 38 39 40 41 42 43 44 45 46 47 48 49 50
000
AXUS43 KLBF 251110
MISLBF


WESTERN AND NORTH CENTRAL NEBRASKA HOURLY WEATHER ROUNDUP
NATIONAL WEATHER SERVICE NORTH PLATTE NE
600 AM CDT SAT APR 25 2015

***STATIONS NOT REPORTING VARIABLES SUCH AS SKY/WEATHER OR
PRESSURE ARE PROVIDED BY THE NEBRASKA DEPARTMENT OF
ROADS...RAWS...AND APRS NETWORKS...AND ARE NOT UNDER
NATIONAL WEATHER SERVICE QUALITY CONTROL***

...OBSERVATIONS IN AND NEAR THE EASTERN PANHANDLE OF NEBRASKA...

CITY           SKY/WX    TMP DP  RH WIND       PRES   REMARKS
PINE RIDGE     MOCLDY    40  38  93 CALM      29.66R
CHADRON        PTCLDY    36  35  96 W7        29.66R WCI  30
ALLIANCE       PTCLDY    38  36  92 NW6       29.66R WCI  33
SIDNEY         CLEAR     41  37  86 NW10      29.68R
$$

...OBSERVATIONS IN NORTH CENTRAL NEBRASKA...

CITY           SKY/WX    TMP DP  RH WIND       PRES   REMARKS
VALENTINE      MOCLDY    49  47  93 NW6       29.61R
THEDFORD       PTCLDY    50  48  92 CALM      29.61R
AINSWORTH      MOCLDY    49  47  92 NW6       29.58R
O`NEILL        CLOUDY    54  52  94 NE10      29.57R FOG
ORD            CLOUDY    54  52  93 NE9       29.54R
BROKEN BOW     MOCLDY    47  44  90 NW6       29.54R
$$

...OBSERVATIONS IN SOUTHWEST NEBRASKA AND FAR NORTHEAST COLORADO...

CITY           SKY/WX    TMP DP  RH WIND       PRES   REMARKS
WRAY           FAIR      45  40  85 W7        29.65R
HOLYOKE        FAIR      45  39  81 NW10      29.65S
IMPERIAL       PTCLDY    44  40  85 NW7       29.63R
OGALLALA       PTCLDY    46  44  93 W8        29.63R
MCCOOK         CLOUDY    50  46  86 NW10      29.58R
LEXINGTON      CLOUDY    53  50  91 NW13      29.55S
$$

...NORTH PLATTE AREA...

CITY           SKY/WX    TMP DP  RH WIND       PRES   REMARKS
$$

...SOME WEATHER OBSERVATIONS FROM AROUND THE REGION...

CITY           SKY/WX    TMP DP  RH WIND       PRES   REMARKS
DENVER         CLEAR     42  27  55 S6        29.72R
LARAMIE        PTCLDY    33  26  75 S7        29.77S WCI  27
CHEYENNE       CLOUDY    43  30  60 N6        29.74R
SCOTTSBLUFF    CLEAR     40  32  73 NW8       29.67S WCI  34
RAPID CITY     PTCLDY    40  37  89 NW8       29.66R WCI  34
PIERRE         CLOUDY    47  45  93 NE13      29.64R FOG
WINNER         FOG       50  48  93 E8        29.61R VSB 1/4
SIOUX FALLS    CLOUDY    46  42  86 E15       29.63R
OMAHA          LGT RAIN  52  50  93 E13       29.48R
GRAND ISLAND   LGT RAIN  53  52  96 NE10      29.51R FOG
KANSAS CITY    MOCLDY    55  54  96 SE9       29.40R
WICHITA        MOCLDY    54  51  90 W7        29.47S
HAYS           MOCLDY    52  43  71 W9        29.51R
LIBERAL        CLEAR     45  37  76 W8        29.67S
GOODLAND       MOCLDY    45  41  86 W10       29.64R
$$



USA.gov is the U.S. government's official web portal to all federal, state and local government web resources and services.